Flag for Canada Weather past 2 weeks in Montreal, Quebec, Canada

Now
59 °F

Passing clouds.


Feels Like: 58 °F
Forecast: 62 / 79 °F
Wind: 6 mph from Southwest

Location: Montreal - Pierre Elliot Trudeau International Aiport

Current Time: Aug 2, 2015 at 4:37:33 AM

Latest Report: Aug 2, 2015 at 4:00 AM


Visibility: 15 mi

Pressure: 29.78 "Hg

Humidity: 88%

Dew point: 55 °F

Location of MontrealLocation

Historic Weather in Montreal — Graph

°F

Montreal temperature yesterday

Maximum temperature yesterday: 77 °F (at 4:00 PM)
Minimum temperature yesterday: 63 °F (at 11:00 PM)
Average temperature yesterday: 69 °F

Past Weeks' High & Low Weather Summary

 TemperatureHumidityPressure
High90 °F (Jul 29, 4:00 PM)100% (Jul 18, 3:00 AM)30.01 "Hg (Jul 18, 3:00 AM)
Low59 °F (Jul 22, 2:00 AM)45% (Jul 20, 4:00 PM)29.51 "Hg (Jul 21, 3:00 PM)
Average72 °F76%29.79 "Hg
* Reported Jul 18 3:00 AM — Aug 2 3:00 AM, Montreal, Weather by CustomWeather, © 2015

Note: Actual official high and low records may vary slightly from our data, if they occured in-between our weather recording intervals... More about our weather records

Advertising

Montreal weather history for previous 24 hours

 ConditionsComfort  
Time TempWeatherWind HumidityBarometerVisibility
3:00 AM
Sun, Aug 2
61 °FPassing clouds.5 mph88%29.78 "Hg15 mi
2:00 AM61 °FPassing clouds.8 mph88%29.78 "Hg15 mi
1:00 AM61 °FPassing clouds.5 mph94%29.78 "Hg15 mi
12:00 AM63 °FPassing clouds.6 mph88%29.78 "Hg15 mi
11:00 PM
Sat, Aug 1
63 °FPassing clouds.7 mph88%29.78 "Hg15 mi
10:00 PM64 °FPassing clouds.7 mph83%29.78 "Hg15 mi
9:00 PM64 °FPartly sunny.No wind83%29.75 "Hg15 mi
8:00 PM66 °FSprinkles. Partly sunny.8 mph83%29.75 "Hg15 mi
7:00 PM66 °FSprinkles. Broken clouds.8 mph73%29.75 "Hg30 mi
6:00 PM70 °FThunderstorms. Broken clouds.22 mph69%29.72 "Hg15 mi
5:00 PM77 °FBroken clouds.13 mph47%29.70 "Hg30 mi
4:00 PM77 °FScattered clouds.14 mph51%29.70 "Hg30 mi
3:00 PM75 °FScattered clouds.17 mph54%29.70 "Hg30 mi
2:00 PM75 °FScattered clouds.15 mph57%29.71 "Hg30 mi
1:00 PM73 °FBroken clouds.17 mph61%29.72 "Hg25 mi
12:00 PM72 °FBroken clouds.15 mph65%29.72 "Hg30 mi
11:00 AM72 °FPartly sunny.16 mph65%29.71 "Hg15 mi
10:00 AM72 °FPassing clouds.14 mph65%29.70 "Hg15 mi
9:00 AM68 °FPassing clouds.15 mph73%29.70 "Hg15 mi
8:00 AM66 °FPassing clouds.10 mph83%29.70 "Hg15 mi
7:00 AM64 °FBroken clouds.12 mph94%29.69 "Hg15 mi
6:02 AM66 °FSprinkles. Passing clouds.12 mph83%29.68 "Hg15 mi
5:00 AM66 °FPassing clouds.10 mph83%29.67 "Hg15 mi
4:00 AM66 °FPassing clouds.7 mph83%29.67 "Hg15 mi
Weather by CustomWeather, © 2015

See weather overviewHow to use our weather pages